Burnet, TX

7:09 AM CST on December 16, 2017 (GMT -0600)
Burnet Municipal-Craddock

Weather History for KBMQ - May, 2013

Change the Weather History Date:

Sunday, May 26, 2013

  Actual Average Record
Temperature  
Mean Temperature 77 °F -  
Max Temperature 84 °F 85 °F 91 °F (1997)
Min Temperature 70 °F 64 °F 60 °F (2015)
Cooling Degree Days 12    
Growing Degree Days 27 (Base 50)    
Moisture  
Dew Point 68 °F    
Average Humidity 80    
Maximum Humidity 93    
Minimum Humidity 61    
Precipitation  
Precipitation 0.00 in - - ()
Sea Level Pressure  
Sea Level Pressure 30.05 in    
Wind  
Wind Speed 9 mph (SSE)    
Max Wind Speed 15 mph    
Max Gust Speed 24 mph    
Visibility 9 miles    
Events      
Averages and records for this station are not official NWS values.
T = Trace of Precipitation, MM = Missing Value Source: NWS Daily Summary

Daily Weather History Graph

Daily Weather History Graph

Search for Another Location

Airport or City:

Trip Planner

Search our weather history database for the weather conditions in past years. The results will help you decide how hot, cold, wet, or windy it might be!

Date:

Astronomy

May. 26, 2013 Rise Set
Actual Time 6:32 AM CDT 8:27 PM CDT
Civil Twilight 6:05 AM CDT 8:55 PM CDT
Nautical Twilight 5:32 AM CDT 9:27 PM CDT
Astronomical Twilight 4:57 AM CDT 10:02 PM CDT
Moon 10:18 PM CDT (5/26) 8:02 AM CDT (5/26)
Length of Visible Light 14h 49m
Length of Day
13h 55m
Waning Gibbous, 96% of the Moon is Illuminated
May 26
Waning Gibbous
May 31
Last Quarter
Jun 8
New
Jun 16
First Quarter
Jun 23
Full

Hourly Weather History & Observations

Time (CDT) Temp. Heat Index Dew Point Humidity Pressure Visibility Wind Dir Wind Speed Gust Speed Precip Events Conditions
12:33 AM 72.0 °F - 69.1 °F 91% 30.11 in 10.0 mi SSE 8.1 mph - N/A   Mostly Cloudy
12:53 AM 72.0 °F - 68.0 °F 87% 30.07 in 10.0 mi SSE 8.1 mph - N/A   Overcast
1:11 AM 72.0 °F - 68.0 °F 87% 30.11 in 10.0 mi South 8.1 mph - N/A   Overcast
1:53 AM 72.0 °F - 68.0 °F 87% 30.05 in 10.0 mi SSE 9.2 mph - N/A   Overcast
2:05 AM 72.0 °F - 68.0 °F 87% 30.09 in 10.0 mi SSE 5.8 mph - N/A   Overcast
2:53 AM 72.0 °F - 68.0 °F 87% 30.05 in 9.0 mi South 6.9 mph - N/A   Overcast
3:53 AM 72.0 °F - 69.1 °F 91% 30.06 in 8.0 mi SSE 5.8 mph - N/A   Overcast
4:21 AM 71.1 °F - 69.1 °F 93% 30.09 in 8.0 mi SSE 9.2 mph - N/A   Overcast
4:53 AM 71.1 °F - 68.0 °F 90% 30.04 in 8.0 mi SSE 5.8 mph - N/A   Mostly Cloudy
5:40 AM 71.1 °F - 68.0 °F 90% 30.09 in 9.0 mi South 6.9 mph - N/A   Scattered Clouds
5:53 AM 71.1 °F - 68.0 °F 90% 30.04 in 8.0 mi SSE 8.1 mph - N/A   Partly Cloudy
6:32 AM 71.1 °F - 68.0 °F 90% 30.07 in 9.0 mi SSE 5.8 mph - N/A   Mostly Cloudy
6:44 AM 70.0 °F - 68.0 °F 93% 30.08 in 8.0 mi SSE 5.8 mph - N/A   Mostly Cloudy
6:53 AM 71.1 °F - 68.0 °F 90% 30.04 in 7.0 mi SSE 3.5 mph - N/A   Mostly Cloudy
7:11 AM 71.1 °F - 68.0 °F 90% 30.10 in 6.0 mi South 5.8 mph - N/A   Overcast
7:53 AM 71.1 °F - 69.1 °F 93% 30.04 in 7.0 mi SSE 8.1 mph - N/A   Overcast
8:11 AM 72.0 °F - 69.1 °F 91% 30.09 in 8.0 mi SSE 9.2 mph - N/A   Overcast
8:35 AM 73.0 °F - 69.1 °F 87% 30.09 in 9.0 mi South 10.4 mph 17.3 mph N/A   Overcast
8:53 AM 73.0 °F - 69.1 °F 87% 30.06 in 9.0 mi South 10.4 mph - N/A   Overcast
9:35 AM 73.0 °F - 69.1 °F 87% 30.11 in 9.0 mi SSE 9.2 mph - N/A   Overcast
9:45 AM 75.0 °F - 69.1 °F 82% 30.11 in 10.0 mi SSE 8.1 mph - N/A   Mostly Cloudy
9:53 AM 75.0 °F - 69.1 °F 82% 30.06 in 10.0 mi SSE 11.5 mph 17.3 mph N/A   Mostly Cloudy
10:30 AM 75.9 °F - 69.1 °F 79% 30.09 in 10.0 mi SSE 15.0 mph 21.9 mph N/A   Overcast
10:53 AM 77.0 °F - 69.1 °F 76% 30.05 in 10.0 mi SSE 13.8 mph 24.2 mph N/A   Mostly Cloudy
11:53 AM 78.1 °F - 69.1 °F 74% 30.04 in 10.0 mi South 13.8 mph 21.9 mph N/A   Mostly Cloudy
12:02 PM 79.0 °F - 69.1 °F 72% 30.09 in 10.0 mi South 12.7 mph 19.6 mph N/A   Scattered Clouds
12:53 PM 81.0 °F 84.4 °F 70.0 °F 69% 30.04 in 10.0 mi South 11.5 mph 19.6 mph N/A   Mostly Cloudy
1:53 PM 82.0 °F 85.5 °F 69.1 °F 65% 30.02 in 10.0 mi South 10.4 mph 19.6 mph N/A   Scattered Clouds
2:28 PM 81.0 °F 84.1 °F 69.1 °F 67% 30.07 in 10.0 mi South 12.7 mph 18.4 mph N/A   Overcast
2:39 PM 82.9 °F 86.5 °F 69.1 °F 63% 30.07 in 10.0 mi South 11.5 mph - N/A   Mostly Cloudy
2:53 PM 82.0 °F 85.5 °F 69.1 °F 65% 30.01 in 10.0 mi SSE 9.2 mph - N/A   Mostly Cloudy
3:53 PM 84.0 °F 87.8 °F 69.1 °F 61% 29.99 in 10.0 mi South 12.7 mph 18.4 mph N/A   Scattered Clouds
4:53 PM 82.9 °F 86.5 °F 69.1 °F 63% 29.97 in 10.0 mi South 12.7 mph 16.1 mph N/A   Partly Cloudy
5:53 PM 82.9 °F 86.5 °F 69.1 °F 63% 29.97 in 10.0 mi South 11.5 mph 20.7 mph N/A   Partly Cloudy
6:53 PM 81.0 °F 83.8 °F 68.0 °F 65% 29.95 in 10.0 mi South 10.4 mph 24.2 mph 0.00 in   Mostly Cloudy
7:53 PM 80.1 °F 82.3 °F 66.9 °F 64% 29.96 in 10.0 mi SSE 8.1 mph - N/A   Partly Cloudy
8:53 PM 78.1 °F - 66.0 °F 66% 29.97 in 10.0 mi South 8.1 mph - N/A   Clear
9:53 PM 75.9 °F - 66.9 °F 74% 29.98 in 10.0 mi South 5.8 mph - N/A   Clear
10:53 PM 75.0 °F - 66.9 °F 76% 30.00 in 10.0 mi South 9.2 mph - N/A   Clear
11:53 PM 73.0 °F - 66.9 °F 81% 30.00 in 10.0 mi South 10.4 mph 17.3 mph N/A   Clear